星链-30982 (STARLINK-30982 )

导读

STARLINK-30982是美国SpaceX公司星链(Starlink)项目的低轨通信卫星,于2023年12月7日发射升空,属于星链第二代卫星星座的组成部分。星链项目旨在构建全球低轨宽带互联网星座,为全球偏远、网络基础设施匮乏地区提供高速低延迟网络接入服务。该卫星具备先进的星间通信技术,可提升星链网络覆盖能力与通信性能,服务全球用户。

基本信息
目录编号:
58512
目录名称:
STARLINK-30982
国际标识:
2023-191E
轨道中心:
EARTH
卫星名称:
星链-30982
卫星全名:
星链-30982 (STARLINK-30982 )
卫星状态:
在轨 (已飞行1002 天)
发射日期:
2023-12-07 UTC
国别 :
美国 (US)
星等 :
--
轨道信息
数据来源 国际轨道数据
星历时间: 2026-09-04T12:08:03+0800
4小时前
查看轨道信息
半长轴: 6861.195km
偏心率: 0.000071
轨道倾角: 43.001°
近地点辐角 266.004°
升交点赤经 175.825°
平近点角 94.073°
近地点: 482.57km
远地点: 483.546km
周期: 94.267分钟
每日圈数: 15.275772
详细信息
固有亮度:
5
最大亮度:
0.3
卫星平台:
Starlink v2.0 mini
覆盖范围:
全球
运营商:
太空探索技术公司
运营商所在国:
美国
制造商(研发单位):
太空探索技术公司
制造商所在国:
美国
使用方式:
暂无
卫星简介
星链(Starlink)计划是由太空探索技术公司(SpaceX)提出的一个巨型低轨卫星互联网星座项目,计划在2019年至2024年间在太空搭建由约1.2万颗卫星组成的“星链”网络,其中1584颗将部署在地球上空550千米处的近地轨道,并从2020年开始工作。该卫星仍在工作。
2D轨道图
3D轨道图
轨道高度分析图
轨道倾角分析图
轨道综合分析图
查看轨道综合分析图
交会数据列表
事件ID 空间交会对象 最接近时刻(TCA) 交会距离 交会风险概率(CRP) 交会风险指数(CRI) 操作
CDM_260905-022905-851205-870222
2026-09-05T
02:29:51+0000
0.829 km
远距离
4.317421E-5 中风险 0.68